TimeCST,TemperatureF,Dew PointF,Humidity,Sea Level PressureIn,VisibilityMPH,Wind Direction,Wind SpeedMPH,Gust SpeedMPH,PrecipitationIn,Events,Conditions,WindDirDegrees,DateUTC
12:12 AM,5.0,1.4,85,30.16,7.0,Calm,Calm,-,N/A,Snow,Light Snow,0,2013-02-07 06:12:00
12:32 AM,3.2,-0.4,85,30.17,7.0,Calm,Calm,-,N/A,Snow,Light Snow,0,2013-02-07 06:32:00
12:52 AM,1.4,-2.2,85,30.17,10.0,Calm,Calm,-,N/A,,Clear,0,2013-02-07 06:52:00
1:12 AM,-0.4,-4.0,85,30.17,10.0,Calm,Calm,-,N/A,,Clear,0,2013-02-07 07:12:00
1:32 AM,-2.2,-5.8,85,30.18,10.0,Calm,Calm,-,N/A,,Clear,0,2013-02-07 07:32:00
1:52 AM,-5.8,-7.6,92,30.18,7.0,Calm,Calm,-,N/A,,Clear,0,2013-02-07 07:52:00
2:12 AM,-5.8,-9.4,84,30.19,10.0,Calm,Calm,-,N/A,,Clear,0,2013-02-07 08:12:00
2:32 AM,-7.6,-9.4,92,30.20,7.0,Calm,Calm,-,N/A,,Clear,0,2013-02-07 08:32:00
2:52 AM,-7.6,-11.2,84,30.20,10.0,Calm,Calm,-,N/A,,Clear,0,2013-02-07 08:52:00
3:12 AM,-7.6,-11.2,84,30.19,10.0,Calm,Calm,-,N/A,,Clear,0,2013-02-07 09:12:00
3:52 AM,-5.8,-7.6,92,30.20,5.0,Calm,Calm,-,N/A,Snow,Light Snow,0,2013-02-07 09:52:00
4:12 AM,-2.2,-5.8,85,30.20,10.0,Calm,Calm,-,N/A,Snow,Light Snow,0,2013-02-07 10:12:00
4:32 AM,-2.2,-4.0,92,30.21,5.0,Calm,Calm,-,N/A,Snow,Light Snow,0,2013-02-07 10:32:00
4:52 AM,-0.4,-2.2,92,30.21,7.0,Calm,Calm,-,N/A,Snow,Light Snow,0,2013-02-07 10:52:00
5:12 AM,-0.4,-2.2,92,30.21,4.0,Calm,Calm,-,N/A,Snow,Light Snow,0,2013-02-07 11:12:00
5:32 AM,1.4,-2.2,85,30.21,5.0,Calm,Calm,-,N/A,Snow,Light Snow,0,2013-02-07 11:32:00
5:52 AM,1.4,-0.4,92,30.22,5.0,Calm,Calm,-,N/A,Snow,Light Snow,0,2013-02-07 11:52:00
6:12 AM,3.2,-0.4,85,30.23,4.0,Calm,Calm,-,N/A,Snow,Light Snow,0,2013-02-07 12:12:00
6:32 AM,3.2,1.4,92,30.23,2.5,Calm,Calm,-,N/A,Snow,Light Snow,0,2013-02-07 12:32:00
6:52 AM,3.2,1.4,92,30.23,5.0,Calm,Calm,-,N/A,Snow,Light Snow,0,2013-02-07 12:52:00
7:12 AM,3.2,1.4,92,30.24,5.0,Calm,Calm,-,N/A,Snow,Light Snow,0,2013-02-07 13:12:00
7:32 AM,5.0,1.4,85,30.24,3.0,Calm,Calm,-,N/A,Snow,Light Snow,0,2013-02-07 13:32:00
7:52 AM,5.0,1.4,85,30.24,5.0,Calm,Calm,-,N/A,Snow,Light Snow,0,2013-02-07 13:52:00
8:12 AM,5.0,1.4,85,30.25,7.0,Calm,Calm,-,N/A,Snow,Light Snow,0,2013-02-07 14:12:00
8:32 AM,6.8,3.2,85,30.26,7.0,NNE,3.5,-,N/A,,Overcast,20,2013-02-07 14:32:00
8:52 AM,6.8,3.2,85,30.26,5.0,Calm,Calm,-,N/A,Snow,Light Snow,0,2013-02-07 14:52:00
9:12 AM,6.8,5.0,92,30.27,5.0,Calm,Calm,-,N/A,Snow,Light Snow,0,2013-02-07 15:12:00
9:32 AM,6.8,3.2,85,30.27,7.0,Calm,Calm,-,N/A,Snow,Light Snow,0,2013-02-07 15:32:00
9:52 AM,8.6,5.0,85,30.27,7.0,NNE,4.6,-,N/A,Snow,Light Snow,20,2013-02-07 15:52:00
10:12 AM,10.4,6.8,85,30.27,10.0,Calm,Calm,-,N/A,Snow,Light Snow,0,2013-02-07 16:12:00
10:32 AM,12.2,6.8,79,30.28,10.0,NE,3.5,-,N/A,,Overcast,40,2013-02-07 16:32:00
10:52 AM,12.2,8.6,85,30.28,10.0,NNE,3.5,-,N/A,,Overcast,30,2013-02-07 16:52:00
11:12 AM,14.0,8.6,79,30.28,10.0,NNE,3.5,-,N/A,Snow,Light Snow,20,2013-02-07 17:12:00
11:32 AM,14.0,8.6,79,30.29,10.0,Calm,Calm,-,N/A,Snow,Light Snow,0,2013-02-07 17:32:00
11:52 AM,15.8,10.4,79,30.28,7.0,Calm,Calm,-,N/A,Snow,Light Snow,0,2013-02-07 17:52:00
12:12 PM,15.8,10.4,79,30.28,5.0,Calm,Calm,-,N/A,Snow,Light Snow,0,2013-02-07 18:12:00
12:32 PM,17.6,12.2,79,30.28,7.0,NW,4.6,-,N/A,Snow,Light Snow,310,2013-02-07 18:32:00
12:52 PM,19.4,12.2,74,30.28,10.0,NW,3.5,-,N/A,Snow,Light Snow,310,2013-02-07 18:52:00
1:12 PM,21.2,14.0,74,30.27,10.0,Calm,Calm,-,N/A,Snow,Light Snow,0,2013-02-07 19:12:00
1:32 PM,23.0,15.8,74,30.26,10.0,NNE,3.5,-,N/A,,Scattered Clouds,30,2013-02-07 19:32:00
1:52 PM,24.8,15.8,69,30.26,10.0,North,4.6,-,N/A,,Clear,350,2013-02-07 19:52:00
2:12 PM,23.0,15.8,74,30.25,10.0,NW,3.5,-,N/A,,Clear,310,2013-02-07 20:12:00
2:32 PM,23.0,15.8,74,30.25,10.0,NW,4.6,-,N/A,,Clear,310,2013-02-07 20:32:00
2:52 PM,23.0,15.8,74,30.25,10.0,Calm,Calm,-,N/A,,Clear,0,2013-02-07 20:52:00
3:12 PM,23.0,15.8,74,30.25,10.0,North,3.5,-,N/A,,Clear,350,2013-02-07 21:12:00
3:32 PM,24.8,15.8,69,30.25,10.0,NW,4.6,-,N/A,,Clear,320,2013-02-07 21:32:00
3:52 PM,23.0,15.8,74,30.25,10.0,NNW,3.5,-,N/A,,Clear,340,2013-02-07 21:52:00
4:12 PM,21.2,12.2,68,30.25,10.0,Calm,Calm,-,N/A,,Clear,0,2013-02-07 22:12:00
4:32 PM,19.4,8.6,63,30.26,10.0,Calm,Calm,-,N/A,,Clear,0,2013-02-07 22:32:00
4:52 PM,12.2,3.2,67,30.26,10.0,Calm,Calm,-,N/A,,Clear,0,2013-02-07 22:52:00
5:32 PM,6.8,-0.4,72,30.27,10.0,Calm,Calm,-,N/A,,Clear,0,2013-02-07 23:32:00
5:52 PM,3.2,-2.2,78,30.28,10.0,Calm,Calm,-,N/A,,Mostly Cloudy,0,2013-02-07 23:52:00
6:12 PM,1.4,-4.0,78,30.29,10.0,Calm,Calm,-,N/A,,Scattered Clouds,0,2013-02-08 00:12:00
6:32 PM,1.4,-5.8,72,30.28,10.0,Calm,Calm,-,N/A,,Clear,0,2013-02-08 00:32:00
6:52 PM,-0.4,-7.6,72,30.29,10.0,Calm,Calm,-,N/A,,Clear,0,2013-02-08 00:52:00
7:12 PM,-2.2,-7.6,78,30.29,10.0,Calm,Calm,-,N/A,,Clear,0,2013-02-08 01:12:00
7:32 PM,-2.2,-9.4,71,30.29,10.0,Calm,Calm,-,N/A,,Clear,0,2013-02-08 01:32:00
7:52 PM,-4.0,-9.4,78,30.29,10.0,Calm,Calm,-,N/A,,Clear,0,2013-02-08 01:52:00
8:12 PM,-5.8,-9.4,84,30.29,10.0,Calm,Calm,-,N/A,,Clear,0,2013-02-08 02:12:00
8:32 PM,-5.8,-11.2,77,30.30,10.0,Calm,Calm,-,N/A,,Clear,0,2013-02-08 02:32:00
8:52 PM,-5.8,-11.2,77,30.31,10.0,Calm,Calm,-,N/A,,Scattered Clouds,0,2013-02-08 02:52:00
9:12 PM,-5.8,-9.4,84,30.31,10.0,Calm,Calm,-,N/A,,Overcast,0,2013-02-08 03:12:00
9:32 PM,-2.2,-7.6,78,30.31,7.0,Calm,Calm,-,N/A,Snow,Light Snow,0,2013-02-08 03:32:00
9:52 PM,-2.2,-5.8,85,30.31,2.5,Calm,Calm,-,N/A,Snow,Light Snow,0,2013-02-08 03:52:00
10:12 PM,-0.4,-5.8,78,30.32,5.0,Calm,Calm,-,N/A,Snow,Light Snow,0,2013-02-08 04:12:00
10:32 PM,1.4,-4.0,78,30.32,5.0,Calm,Calm,-,N/A,Snow,Light Snow,0,2013-02-08 04:32:00
10:52 PM,1.4,-2.2,85,30.32,3.0,Calm,Calm,-,N/A,Snow,Light Snow,0,2013-02-08 04:52:00
11:12 PM,1.4,-2.2,85,30.31,5.0,Calm,Calm,-,N/A,Snow,Light Snow,0,2013-02-08 05:12:00
11:31 PM,1.4,-2.2,85,30.32,3.0,Calm,Calm,-,N/A,Snow,Light Snow,0,2013-02-08 05:31:00
11:51 PM,1.4,-2.2,85,30.32,5.0,Calm,Calm,-,N/A,Snow,Light Snow,0,2013-02-08 05:51:00